OSCAR 7 (AO-7) 1 07530U 74089B 26034.24236321 -.00000047 00000+0 -18851-5 0 9991 2 07530 101.9970 46.0630 0012294 28.0170 34.0742 12.53695596343730 PHASE 3B (AO-10) 1 14129U 83058B 26032.88008791 -.00000076 00000+0 00000+0 0 9997 2 14129 25.9660 242.3970 6057197 78.0086 340.2671 2.05871360292703 UOSAT 2 (UO-11) 1 14781U 84021B 26033.89728642 .00001659 00000+0 17615-3 0 9999 2 14781 97.7887 1.1450 0006038 268.8201 91.2325 14.90368519237127 LUSAT (LO-19) 1 20442U 90005G 26034.29376665 .00000171 00000+0 78031-4 0 9996 2 20442 98.8949 52.3460 0010702 235.8623 124.1546 14.34072686883205 EYESAT A (AO-27) 1 22825U 93061C 26034.16380432 .00000129 00000+0 66192-4 0 9999 2 22825 98.7057 101.5348 0009252 129.6165 230.5836 14.30900640687833 ITAMSAT (IO-26) 1 22826U 93061D 26034.18297706 .00000163 00000+0 78596-4 0 9992 2 22826 98.7005 101.4582 0009922 115.0097 245.2117 14.31323796688145 RADIO ROSTO (RS15) 1 23439U 94085A 26034.28416282 -.00000019 00000+0 66220-3 0 9994 2 23439 64.8153 159.7742 0151452 28.5798 332.3325 11.27583825280803 JAS-2 (FO-29) 1 24278U 96046B 26034.19408352 -.00000002 00000+0 30848-4 0 9994 2 24278 98.5426 261.2725 0350890 84.1018 279.9997 13.53266375455042 TECHSAT 1B (GO-32) 1 25397U 98043D 26034.25009873 .00000098 00000+0 62681-4 0 9992 2 25397 98.9980 23.6908 0000579 191.1281 168.9884 14.24395750432264 ISS (ZARYA) 1 25544U 98067A 26034.04958920 .00010142 00000+0 19604-3 0 9992 2 25544 51.6308 243.5964 0011016 59.0626 301.1443 15.48354905550960 PCSAT (NO-44) 1 26931U 01043C 26033.98358421 .00000155 00000+0 88839-4 0 9993 2 26931 67.0489 231.3694 0007059 266.6155 93.4139 14.31891180271237 SAUDISAT 1C (SO-50) 1 27607U 02058C 26033.88189073 .00001744 00000+0 22421-3 0 9994 2 27607 64.5523 184.4092 0074224 286.9857 72.3123 14.82636473244542 CUTE-1 (CO-55) 1 27844U 03031E 26034.28074081 .00000390 00000+0 18801-3 0 9999 2 27844 98.6772 44.5100 0009039 208.8808 151.1871 14.24235603172616 CUBESAT XI-IV (CO-57) 1 27848U 03031J 26033.49974978 .00000306 00000+0 15349-3 0 9990 2 27848 98.6800 43.5598 0008627 230.8154 129.2259 14.23534439172213 MOZHAETS 4 (RS22) 1 27939U 03042A 26034.29721155 .00001579 00000+0 25319-3 0 9990 2 27939 98.3390 214.9099 0010978 339.0228 144.9636 14.73150158195834 CUBESAT XI-V 1 28895U 05043F 26033.85001037 .00002007 00000+0 32661-3 0 9991 2 28895 98.2771 186.8334 0013154 271.7217 88.2482 14.72154990 81982 CUTE-1.7+APD II (CO-65) 1 32785U 08021C 26034.27794869 .00007811 00000+0 51318-3 0 9990 2 32785 97.8155 13.1613 0010805 118.5458 241.6859 15.07850272965005 SEEDS II (CO-66) 1 32791U 08021J 26033.69555460 .00020780 00000+0 77376-3 0 9996 2 32791 97.7480 25.7247 0005606 75.7085 284.4775 15.27492767966722 YUBILEINY (RS30) 1 32953U 08025A 26034.34351890 .00000019 00000+0 65710-4 0 9997 2 32953 82.4999 78.7018 0018442 241.5286 118.3936 12.43174428803067 KKS-1 (KISEKI) 1 33499U 09002H 26034.25104082 .00002128 00000+0 27064-3 0 9990 2 33499 98.1193 314.6262 0008317 14.9541 345.1916 14.82684095916347 SWISSCUBE 1 35932U 09051B 26034.26239358 .00001500 00000+0 30803-3 0 9992 2 35932 98.4133 299.7898 0005553 272.2455 87.8109 14.62154933869586 BEESAT-1 1 35933U 09051C 26034.20422321 .00001256 00000+0 26354-3 0 9995 2 35933 98.4061 299.6396 0004149 290.8104 69.2651 14.61444490869615 ITUPSAT1 1 35935U 09051E 26034.21573422 .00001149 00000+0 24864-3 0 9992 2 35935 98.4150 298.9800 0006447 300.7723 59.2841 14.60186419869184 XIWANG-1 (HOPE-1) 1 36122U 09072B 26034.25727231 -.00000332 00000+0 -75310-3 0 9994 2 36122 100.3855 350.3357 0007404 175.2912 184.8272 13.16433183775381 O/OREOS (USA 219) 1 37224U 10062C 26034.29609716 .00003615 00000+0 35210-3 0 9990 2 37224 71.9714 23.4759 0016492 315.1731 44.8106 14.93052157 96658 JUGNU 1 37839U 11058B 26034.19649499 .00000491 00000+0 11676-3 0 9998 2 37839 19.9619 42.4396 0018713 37.2976 40.4429 14.13724840740041 SRMSAT 1 37841U 11058D 26033.71249579 .00000441 00000+0 95475-4 0 9998 2 37841 19.9706 153.3990 0011658 163.8935 340.6361 14.11533774738796 STRAND-1 1 39090U 13009E 26033.96028741 .00000397 00000+0 14811-3 0 9991 2 39090 98.3854 217.5215 0007565 272.4470 87.5850 14.37061675677780 ZACUBE-1 (TSHEPISOSAT) 1 39417U 13066B 26034.11121803 .00008054 00000+0 64316-3 0 9991 2 39417 97.8162 355.7742 0041192 339.3739 20.5820 14.99864823660627 GOMX-1 1 39430U 13066Q 26034.29112229 .00002749 00000+0 42001-3 0 9999 2 39430 97.6576 243.1387 0130286 146.9628 213.9804 14.68939806650254 CUBEBUG-2 (LO-74) 1 39440U 13066AA 26033.84075730 .00004226 00000+0 40275-3 0 9998 2 39440 97.8771 342.4841 0060496 111.9858 248.7803 14.92530025656948 FUNCUBE-1 (AO-73) 1 39444U 13066AE 26034.12648135 .00011948 00000+0 78569-3 0 9995 2 39444 97.8132 3.1110 0036454 301.3714 58.3948 15.07186925659453 UWE-3 1 39446U 13066AG 26033.81398672 .00006608 00000+0 58293-3 0 9999 2 39446 97.8545 349.2370 0051791 49.0624 311.5062 14.95707388657482 UNISAT-6 1 40012U 14033C 26034.23186454 .00005372 00000+0 58922-3 0 9991 2 40012 97.7663 189.5280 0046429 148.9207 211.4771 14.87334230626244 DUCHIFAT-1 1 40021U 14033M 26034.04534816 .00043955 00000+0 90557-3 0 9998 2 40021 98.0705 76.4972 0005853 186.4440 173.6733 15.45776570634911 QB50P1 1 40025U 14033R 26034.25840537 .00012060 00000+0 63573-3 0 9996 2 40025 98.0991 36.2423 0008143 336.6950 23.3910 15.15722379632727 LILACSAT-2 1 40908U 15049K 26034.24024087 .00018673 00000+0 37479-3 0 9999 2 40908 97.4854 66.2946 0008397 31.4652 328.7098 15.46695245575013 FOX-1A (AO-85) 1 40967U 15058D 26034.23255247 .00003449 00000+0 31830-3 0 9997 2 40967 64.7777 334.9960 0130570 109.5495 251.9771 14.90073585 93601 CAS-2T & KS-1Q 1 41847U 16066G 26034.20844647 .00001960 00000+0 28372-3 0 9993 2 41847 98.3952 111.4284 0343247 175.7803 184.6418 14.44337153485450 RADFXSAT (FOX-1B) 1 43017U 17073E 26034.14740568 .00008707 00000+0 39777-3 0 9990 2 43017 97.4906 264.1819 0159446 70.6963 291.1433 15.10082928445140 DIWATA-2B 1 43678U 18084H 26034.29800690 .00001090 00000+0 93398-4 0 9993 2 43678 98.1070 224.9204 0008086 234.8666 125.1799 14.99786437396140 ES'HAIL 2 1 43700U 18090A 26033.49406449 .00000134 00000+0 00000+0 0 9992 2 43700 0.0201 91.0921 0002326 262.4360 342.7843 1.00273144 26323 FOX-1CLIFF (AO-95) 1 43770U 18099N 26034.10484618 .00013642 00000+0 57422-3 0 9993 2 43770 97.4586 95.0296 0010587 99.3573 260.8862 15.23440273392782 ITASAT 1 43786U 18099AE 26034.15323599 .00008542 00000+0 43343-3 0 9995 2 43786 97.4237 88.3830 0014593 99.4122 260.8762 15.17072778392573 JY1SAT (JO-97) 1 43803U 18099AX 26034.14549621 .00017381 00000+0 61971-3 0 9998 2 43803 97.4331 96.8428 0006773 37.4853 322.6858 15.28946200393115 UWE-4 1 43880U 18111E 26033.29847592 .00028230 00000+0 76433-3 0 9995 2 43880 97.5871 316.3704 0012019 89.0302 271.2319 15.37572892389993 TIANYAN 01 1 44881U 19093C 26034.28383325 .00001191 00000+0 14136-3 0 9995 2 44881 97.7682 109.7260 0013906 162.1929 197.9777 14.86255640331522 RS-44 & BREEZE-KM R/B 1 44909U 19096E 26034.16112738 .00000030 00000+0 65773-4 0 9999 2 44909 82.5176 68.7705 0218650 97.7315 264.8672 12.79746828285200 SALSAT 1 46495U 20068K 26034.22273685 .00010505 00000+0 39328-3 0 9992 2 46495 97.8824 29.3809 0011951 58.2989 301.9412 15.27436782294894 XW-3 (CAS-9) 1 50466U 21131B 26034.27725685 .00000633 00000+0 20975-3 0 9993 2 50466 98.5004 127.4264 0004995 132.1981 227.9633 14.41202660215823 GREENCUBE (IO-117) 1 53109U 22080E 26033.87005033 -.00000003 00000+0 00000+0 0 9992 2 53109 70.1639 344.9525 0009157 317.3038 42.6910 6.42583187 83439 UMKA 1 (RS40S) 1 57172U 23091G 26034.19271717 .00007615 00000+0 36591-3 0 9992 2 57172 97.5251 93.4382 0012300 222.3725 137.6561 15.19051912143653 CUBESX-HSE 3 (RS42S) 1 57178U 23091N 26034.31487373 .00016412 00000+0 61105-3 0 9993 2 57178 97.5282 98.4511 0011244 200.2448 159.8347 15.27498165143961 MONITOR-3 (RS58S) 1 57180U 23091Q 26034.33622589 .00012654 00000+0 51121-3 0 9999 2 57180 97.5275 96.9653 0011931 205.6673 154.3974 15.24833491143876 MONITOR-4 (RS57S) 1 57182U 23091S 26034.25758242 .00013953 00000+0 56199-3 0 9991 2 57182 97.5270 96.8492 0011921 206.5063 153.5567 15.24909255143865 MONITOR-2 (RS39S) 1 57184U 23091U 26034.32273745 .00006558 00000+0 33041-3 0 9995 2 57184 97.5275 93.4716 0010771 212.3071 147.7504 15.17466762143645 SVYATOBOR 1 (RS60S) 1 57187U 23091X 26034.23858595 .00011642 00000+0 48233-3 0 9999 2 57187 97.5284 97.4377 0009540 195.7764 164.3177 15.24030040143892 VIZARD-METEO (RS38S) 1 57189U 23091Z 26034.27780748 .00018682 00000+0 61713-3 0 9998 2 57189 97.5272 101.4236 0007992 180.1671 179.9569 15.31408517144169 NANOZOND 1 (RS49S) 1 57190U 23091AA 26034.29357428 .00122611 00000+0 13103-2 0 9994 2 57190 97.5169 112.0894 0003585 174.4758 185.6541 15.63496590144886 POLYTECH-UNIVERSE 3 (R*) 1 57191U 23091AB 26034.30085338 .00007122 00000+0 35623-3 0 9996 2 57191 97.5251 92.9587 0014875 231.8377 128.1517 15.17642972143636 UTMN 2 (RS27S) 1 57203U 23091AP 26034.27778725 .00015046 00000+0 54579-3 0 9990 2 57203 97.5272 99.8817 0008604 185.2274 174.8877 15.28402138144061 KUZGTU 1 (RS47S) 1 57217U 23091AV 26034.33174848 .00014933 00000+0 57406-3 0 9994 2 57217 97.5257 97.6549 0011323 203.3746 156.6979 15.26457898143932 SONATE-2 1 59112U 24043Q 26033.86108058 .00033986 00000+0 63523-3 0 9991 2 59112 97.5356 177.2020 0008289 339.9086 20.1837 15.48637545107039 MESAT1 1 60209U 24125G 26034.07643400 .00041736 00000+0 72848-3 0 9992 2 60209 97.2486 249.6261 0013773 358.9234 1.1986 15.50476960 88701 OOV-CUBE (TUBSAT-30) 1 60240U 24128F 26034.21382006 .00003489 00000+0 27185-3 0 9995 2 60240 61.9972 332.4826 0056783 105.0835 255.6548 15.01994639 85989 COLIBRI-S (RS67S) 1 61746U 24199M 26034.30448152 .00023542 00000+0 55614-3 0 9990 2 61746 97.3208 267.3254 0011330 52.2849 307.9423 15.41782621116746 HORS 3 (RS81S) 1 61753U 24199U 26034.30261281 .00033274 00000+0 68110-3 0 9992 2 61753 97.3179 268.2067 0009748 57.5031 302.7159 15.45988857116814 HORS 4 (RS82S) 1 61754U 24199V 26034.29832574 .00038503 00000+0 72597-3 0 9994 2 61754 97.3156 268.7767 0009600 56.0551 304.1611 15.48345266116857 HORIZON (RS59S) 1 61757U 24199Y 26034.30156853 .00095304 00000+0 10753-2 0 9995 2 61757 97.3143 271.7779 0008226 42.4523 317.7370 15.62156649117049 ARCTICSAT 1 (RS74S) 1 61762U 24199AD 26034.30168660 .00078101 00000+0 98113-3 0 9993 2 61762 97.3157 271.4766 0008268 39.7773 320.4088 15.59404786117024 SIT-2086 1 61764U 24199AF 26034.30326051 .00024016 00000+0 49685-3 0 9991 2 61764 97.3174 268.9652 0008915 43.2102 316.9845 15.45749422113701 MORDOVIA-IOT (RS50S) 1 61765U 24199AG 26030.00009282 .01088222 64376-3 17131-2 0 9999 2 61765 97.2909 271.5843 0005153 76.8106 283.3749 16.04044133113518 RUZAEVKA 390 (RS44S) 1 61766U 24199AH 26033.17970470 .00223778 00000+0 13287-2 0 9991 2 61766 97.3061 272.9898 0006220 49.8562 310.3248 15.77365322113886 HYPERVIEW 1G (RS66S) 1 61772U 24199AP 26034.27843399 .00056516 00000+0 88463-3 0 9992 2 61772 97.3148 269.5585 0011187 53.1812 307.0466 15.53498083113754 ALTAIR (RS65S) 1 61779U 24199AW 26034.27171873 .00012622 00000+0 38343-3 0 9992 2 61779 97.3224 264.5988 0015470 69.1579 291.1319 15.34084941116569 ASRTU-1 (AO-123) 1 61781U 24199AY 26034.29719586 .00011636 00000+0 36249-3 0 9993 2 61781 97.3203 264.2071 0015967 70.1907 290.1056 15.33296766113391 TUSUR GO (RS78S) 1 61782U 24199AZ 26034.31783147 .00105865 00000+0 11999-2 0 9993 2 61782 97.3104 270.8184 0009677 51.9846 308.2284 15.61988075113846 SAMSAT-IONOSPHERE (RS7*) 1 61784U 24199BB 26034.28363412 .00037380 00000+0 74313-3 0 9996 2 61784 97.3172 267.9348 0012736 57.9892 302.2594 15.46780032116790 RTU MIREA 1 (RS51S) 1 61785U 24199BC 26034.31997781 .00043467 00000+0 81795-3 0 9998 2 61785 97.3167 268.3286 0012321 55.7751 304.4665 15.48342927113677 HADES-R 1 62690U 25009CK 26032.99082620 .05664363 23962-5 28116-2 0 9998 2 62690 97.3536 123.7794 0009922 302.1245 57.9081 16.20799086 58843 TEVEL2-4 1 63213U 25052D 26034.16547669 .00018530 00000+0 65149-3 0 9992 2 63213 97.4075 290.7059 0001645 174.3644 185.7615 15.29409185 49590 TEVEL2-5 1 63214U 25052E 26034.23935489 .00020323 00000+0 71625-3 0 9991 2 63214 97.4069 290.7591 0001613 173.1600 186.9662 15.29311707 49608 TEVEL2-6 1 63215U 25052F 26034.24822677 .00020716 00000+0 73100-3 0 9993 2 63215 97.4073 290.7545 0001683 176.7075 183.4176 15.29267944 49600 TEVEL2-1 1 63217U 25052H 26034.23749943 .00019634 00000+0 70117-3 0 9990 2 63217 97.4049 290.5088 0001218 201.0424 159.0766 15.28887177 49596 TEVEL2-3 1 63218U 25052J 26034.23581133 .00020047 00000+0 71514-3 0 9998 2 63218 97.4050 290.5155 0001237 203.2924 156.8260 15.28917829 49596 TEVEL2-2 1 63219U 25052K 26033.25644546 .00019284 00000+0 68965-3 0 9995 2 63219 97.4054 289.5334 0001115 215.6514 144.4652 15.28844945 49445 TEVEL2-9 1 63237U 25052AD 26034.18912955 .00020291 00000+0 76074-3 0 9990 2 63237 97.4110 290.0887 0004631 256.2640 103.8083 15.27269985 49547 TEVEL2-7 1 63238U 25052AE 26034.14333435 .00017835 00000+0 67314-3 0 9994 2 63238 97.4114 290.0049 0004697 256.9900 103.0815 15.27075331 49534 TEVEL2-8 1 63239U 25052AF 26034.21536084 .00018959 00000+0 71572-3 0 9997 2 63239 97.4108 290.0588 0004764 256.9045 103.1662 15.27055713 49545 HADES-ICM 1 63492U 25052BN 26033.95191145 .00094639 00000+0 17677-2 0 9997 2 63492 97.4022 293.3634 0003463 229.7496 130.3452 15.48414396 49753 INNOSAT 16 (RS92S7) 1 64878U 25155C 26034.24309904 .00008681 00000+0 36523-3 0 9991 2 64878 97.4408 2.1038 0009010 303.8181 56.2197 15.23594800 60266 GEOSCAN 6 (RS92S6) 1 64879U 25155D 26034.25727427 .00015028 00000+0 56889-3 0 9997 2 64879 97.4408 2.7136 0006056 300.6489 59.4152 15.27009305 60301 GEOSCAN 1 (RS92S1) 1 64880U 25155E 26034.30185453 .00015431 00000+0 57771-3 0 9991 2 64880 97.4407 2.8121 0005919 301.3839 58.6820 15.27369693 60314 239ALFEROV (RS61S) 1 64881U 25155F 26034.29316103 .00017844 00000+0 64277-3 0 9997 2 64881 97.4415 3.0020 0005403 302.0784 57.9931 15.28613532 60321 GEOSCAN 2 (RS92S2) 1 64890U 25155Q 26034.19006198 .00014735 00000+0 54690-3 0 9990 2 64890 97.4404 2.7957 0005057 283.9554 76.1122 15.27671197 60304 GEOSCAN 5 (RS92S5) 1 64891U 25155R 26034.24543623 .00019094 00000+0 68046-3 0 9999 2 64891 97.4406 3.0384 0004489 315.3535 44.7343 15.28953472 60320 GEOSCAN 4 (RS92S4) 1 64892U 25155S 26034.23997775 .00018735 00000+0 66597-3 0 9990 2 64892 97.4411 3.0509 0004445 315.9064 44.1821 15.29042688 60325 GEOSCAN 3 (RS92S3) 1 64893U 25155T 26034.24472337 .00021847 00000+0 75076-3 0 9994 2 64893 97.4405 3.1871 0004158 322.1966 37.8982 15.30114331 60339 INNOSAT 3 (RS92S0) 1 64894U 25155U 26034.24652387 .00039193 00000+0 11889-2 0 9994 2 64894 97.4380 3.6180 0003312 336.0770 24.0318 15.34001664 60360